Weather Roundup
Issued by NWS

Home | Current Version | Previous Version | Graphics & Text | Print | Product List | Glossary Off
Versions: 1 2 3 4 5 6 7 8 9 10 11 12 13 14 15 16 17 18 19 20 21 22 23 24 25 26 27 28 29 30 31 32 33 34 35 36 37 38 39 40 41 42 43 44 45 46 47 48 49 50

219
NZUS93 KARX 282310
HRRWXR

CURRENT HOURLY OBSERVATIONS ACROSS
MUCH OF THE UPPER MISSISSIPPI VALLEY
NATIONAL WEATHER SERVICE LA CROSSE WI
600 PM CDT FRI APR 28 2017


...SOUTHEAST MINNESOTA...


CITY           SKY/WX    TMP DP  RH WIND       PRES   REMARKS
ROCHESTER      CLOUDY    45  33  63 N10       29.94R
ROCHESTER/MAYO FAIR      46  30  54 N5        29.95R
WINONA         CLOUDY    48  34  57 NW5       29.95R
AUSTIN         CLOUDY    45  34  65 N10       29.91F
ALBERT LEA     CLOUDY    45  30  57 N12       29.92F
DODGE CENTER   CLOUDY    45  30  57 N6        29.95R
PRESTON        CLOUDY    43  32  66 NE5       29.94S
OWATONNA       CLOUDY    46  28  49 N7        29.95R
FARIBAULT      CLOUDY    48  30  49 N5        29.96R
$$

...ELSEWHERE IN MINNESOTA...


CITY           SKY/WX    TMP DP  RH WIND       PRES   REMARKS
MINNEAPOLIS    CLOUDY    51  29  42 VRB7      29.96R
INTNL FALLS    SUNNY     44  21  40 N10       30.00R
DULUTH         CLOUDY    47  26  44 N10       29.93R
RED WING       CLOUDY    48  27  43 NW7       29.95R
REDWOOD FALLS  PTSUNNY   52  25  35 N14       29.98R
MANKATO        CLOUDY    47  32  56 N10       29.96S
WORTHINGTON    PTSUNNY   46  31  55 N14       29.97R
FAIRMONT       CLOUDY    47  32  56 NE6       29.98R
$$

...SOUTHWEST WISCONSIN...


CITY           SKY/WX    TMP DP  RH WIND       PRES   REMARKS
LA CROSSE      CLOUDY    49  33  54 N8        29.95R
PRAIRIE DU CHI LGT RAIN  45  39  79 N5        29.93R
BOSCOBEL       LGT RAIN  48  42  80 NW5       29.93R
LONE ROCK      LGT RAIN  47  40  76 NE6       29.92R
PLATTEVILLE    CLOUDY    46  45  94 NE5       29.91R
FORT MC COY    CLOUDY    47  34  59 N6        29.95R
CAMP DOUGLAS   CLOUDY    49  34  55 NW7       29.92R
MAUSTON-NEW LI LGT RAIN  48  35  58 N3        29.91R
VIROQUA        CLOUDY    46  34  64 N5        29.93R
WIS DELLS      LGT RAIN  47  38  73 CALM      29.91R
$$

...ELSEWHERE IN WISCONSIN...


CITY           SKY/WX    TMP DP  RH WIND       PRES   REMARKS
MILWAUKEE      CLOUDY    47  40  76 CALM      29.90R
MADISON        LGT RAIN  47  39  74 NE3       29.90R
GREEN BAY      CLOUDY    51  37  58 W7        29.92S
EAU CLAIRE     CLOUDY    49  29  46 N9        29.93R
BLACK RVR FLS  MOCLDY    47  28  47 CALM      29.93R
MEDFORD        CLOUDY    44  30  59 NW8       29.92R
WAUSAU         MOSUNNY   45  30  55 NW10      29.90F
WIS RAPIDS     PTSUNNY   49  31  49 N7        29.93R
MARSHFIELD     MOSUNNY   46  31  55 N10       29.91R
RICE LAKE      MOSUNNY   48  30  49 N7        29.96R
$$

...NORTHEAST IOWA...


CITY           SKY/WX    TMP DP  RH WIND       PRES   REMARKS
WATERLOO       CLOUDY    45  38  76 NE10      29.90S
DUBUQUE        CLOUDY    44  41  89 NE10      29.90R
DECORAH        HVY RAIN  43  37  81 N10       29.91F
MASON CITY     CLOUDY    43  36  76 NE8       29.95R
CHARLES CITY   MOSUNNY   43  36  75 N9        29.92R
OELWEIN        PTSUNNY   45  41  87 NE15      29.91S
$$

...ELSEWHERE IN IOWA...


CITY           SKY/WX    TMP DP  RH WIND       PRES   REMARKS
DES MOINES     CLOUDY    45  40  82 NE14      29.89R
IOWA CITY      LGT RAIN  45  42  89 N10       29.88R FOG
FORT DODGE     CLOUDY    43  36  75 N12       29.93S
MARSHALLTOWN   CLOUDY    43  39  86 NE18      29.89R
CEDAR RAPIDS   LGT RAIN  43  43 100 N13       29.86R FOG
$$

...NORTHERN ILLINOIS...


CITY           SKY/WX    TMP DP  RH WIND       PRES   REMARKS
CHICAGO-OHARE  PTSUNNY   58  45  62 NE10      29.87R
CHICAGO-MIDWAY CLOUDY    57  46  66 E10       29.87S
MOLINE         CLOUDY    50  46  86 NE9       29.84R
ROCKFORD       CLOUDY    51  47  86 N8        29.91R
PEORIA         CLOUDY    60  54  80 S6        29.82R
$$

NOTE: "FAIR" INDICATES FEW OR NO CLOUDS BELOW 12,000 FEET WITH NO
SIGNIFICANT WEATHER AND/OR OBSTRUCTIONS TO VISIBILITY. WIND
SPEEDS ARE IN MILES-PER-HOUR.




USA.gov is the U.S. government's official web portal to all federal, state and local government web resources and services.